TimeGMT,TemperatureF,Dew PointF,Humidity,Sea Level PressureIn,VisibilityMPH,Wind Direction,Wind SpeedMPH,Gust SpeedMPH,PrecipitationIn,Events,Conditions,WindDirDegrees,DateUTC
12:20 AM,48.2,44.6,87,29.92,6.2,West,9.2,-,N/A,,Mostly Cloudy,260,2012-10-27 23:20:00
12:50 AM,48.2,44.6,87,29.92,6.2,West,11.5,-,N/A,,Mostly Cloudy,260,2012-10-27 23:50:00
1:20 AM,48.2,44.6,87,29.89,6.2,West,10.4,-,N/A,,Mostly Cloudy,260,2012-10-28 00:20:00
1:50 AM,48.2,44.6,87,29.89,6.2,West,11.5,-,N/A,,Mostly Cloudy,280,2012-10-28 00:50:00
1:20 AM,48.2,44.6,87,29.89,6.2,WSW,5.8,-,N/A,,Overcast,240,2012-10-28 01:20:00
1:50 AM,48.2,44.6,87,29.86,6.2,SSW,6.9,-,N/A,,Mostly Cloudy,210,2012-10-28 01:50:00
2:20 AM,48.2,44.6,87,29.86,6.2,WSW,6.9,-,N/A,,Mostly Cloudy,240,2012-10-28 02:20:00
2:50 AM,48.2,44.6,87,29.86,6.2,WSW,9.2,-,N/A,,Mostly Cloudy,250,2012-10-28 02:50:00
3:20 AM,46.4,44.6,93,29.83,6.2,SW,8.1,-,N/A,,Mostly Cloudy,220,2012-10-28 03:20:00
3:50 AM,46.4,44.6,93,29.83,6.2,SW,10.4,-,N/A,,Mostly Cloudy,230,2012-10-28 03:50:00
4:20 AM,50.0,46.4,87,29.80,6.2,WSW,12.7,-,N/A,,Mostly Cloudy,250,2012-10-28 04:20:00
4:50 AM,50.0,46.4,87,29.80,6.2,WSW,10.4,-,N/A,Rain,Light Rain,250,2012-10-28 04:50:00
5:20 AM,48.2,46.4,93,29.77,6.2,West,11.5,-,N/A,,Mostly Cloudy,260,2012-10-28 05:20:00
5:50 AM,48.2,46.4,93,29.77,6.2,West,10.4,-,N/A,Rain,Light Rain,260,2012-10-28 05:50:00
6:20 AM,48.2,46.4,93,29.77,6.2,WSW,9.2,-,N/A,Rain,Light Rain,250,2012-10-28 06:20:00
6:50 AM,48.2,46.4,93,29.74,6.2,WSW,10.4,-,N/A,Rain,Light Rain,250,2012-10-28 06:50:00
7:20 AM,48.2,44.6,87,29.74,6.2,WSW,9.2,-,N/A,Rain,Light Rain,250,2012-10-28 07:20:00
7:50 AM,48.2,44.6,87,29.74,6.2,WSW,8.1,-,N/A,Rain,Light Rain,250,2012-10-28 07:50:00
8:20 AM,48.2,44.6,87,29.71,6.2,SW,10.4,-,N/A,Rain,Light Rain,230,2012-10-28 08:20:00
8:50 AM,48.2,44.6,87,29.71,6.2,SW,8.1,-,N/A,Rain,Light Rain,230,2012-10-28 08:50:00
9:20 AM,48.2,46.4,93,29.68,6.2,SW,10.4,-,N/A,Rain,Light Rain,230,2012-10-28 09:20:00
9:50 AM,48.2,46.4,93,29.65,6.2,WSW,13.8,-,N/A,Rain,Light Rain,240,2012-10-28 09:50:00
10:20 AM,48.2,46.4,93,29.65,6.2,SW,10.4,-,N/A,Rain,Light Rain,220,2012-10-28 10:20:00
10:50 AM,48.2,46.4,93,29.65,6.2,SW,13.8,-,N/A,Rain,Light Rain,230,2012-10-28 10:50:00
11:20 AM,48.2,46.4,93,29.62,6.2,SW,10.4,-,N/A,Rain,Light Rain,230,2012-10-28 11:20:00
11:50 AM,48.2,46.4,93,29.62,6.2,WSW,12.7,-,N/A,Rain,Light Rain,240,2012-10-28 11:50:00
12:20 PM,48.2,46.4,93,29.59,6.2,SW,13.8,-,N/A,Rain,Light Rain,230,2012-10-28 12:20:00
12:50 PM,48.2,46.4,93,29.59,5.0,WSW,13.8,-,N/A,Rain,Rain,240,2012-10-28 12:50:00
1:20 PM,48.2,44.6,87,29.59,5.6,WSW,16.1,-,N/A,Rain,Light Rain,250,2012-10-28 13:20:00
1:50 PM,48.2,44.6,87,29.56,6.2,WSW,13.8,-,N/A,Rain,Light Rain,240,2012-10-28 13:50:00
2:20 PM,48.2,44.6,87,29.56,6.2,SW,12.7,-,N/A,Rain,Light Rain,230,2012-10-28 14:20:00
2:50 PM,48.2,44.6,87,29.56,6.2,SW,9.2,-,N/A,,Mostly Cloudy,230,2012-10-28 14:50:00
3:20 PM,48.2,44.6,87,29.53,6.2,WSW,11.5,-,N/A,,Mostly Cloudy,240,2012-10-28 15:20:00
3:50 PM,48.2,44.6,87,29.53,6.2,SW,13.8,-,N/A,,Mostly Cloudy,230,2012-10-28 15:50:00
4:20 PM,46.4,44.6,93,29.53,6.2,SW,10.4,-,N/A,,Mostly Cloudy,230,2012-10-28 16:20:00
4:50 PM,46.4,44.6,93,29.53,6.2,WSW,6.9,-,N/A,Rain,Light Rain,240,2012-10-28 16:50:00
5:20 PM,46.4,44.6,93,29.53,6.2,West,3.5,-,N/A,,Overcast,260,2012-10-28 17:20:00
5:50 PM,46.4,44.6,93,29.56,4.3,WSW,5.8,-,N/A,Rain,Light Rain,240,2012-10-28 17:50:00
6:20 PM,46.4,44.6,93,29.56,6.2,Variable,3.5,-,N/A,,Mostly Cloudy,0,2012-10-28 18:20:00
6:50 PM,44.6,42.8,93,29.56,6.2,WSW,3.5,-,N/A,,Mostly Cloudy,240,2012-10-28 18:50:00
7:20 PM,44.6,42.8,93,29.56,6.2,Calm,Calm,-,N/A,,Mostly Cloudy,0,2012-10-28 19:20:00
7:50 PM,46.4,44.6,93,29.56,6.2,Variable,2.3,-,N/A,Rain,Light Rain,0,2012-10-28 19:50:00
8:20 PM,46.4,44.6,93,29.56,6.2,Calm,Calm,-,N/A,Rain,Light Rain,0,2012-10-28 20:20:00
8:50 PM,44.6,44.6,100,29.56,6.2,Calm,Calm,-,N/A,Rain,Light Rain,0,2012-10-28 20:50:00
9:20 PM,46.4,44.6,93,29.56,6.2,ESE,2.3,-,N/A,Rain,Light Rain,120,2012-10-28 21:20:00
9:50 PM,44.6,42.8,93,29.59,3.7,NNE,2.3,-,N/A,,Mostly Cloudy,20,2012-10-28 21:50:00
10:20 PM,44.6,42.8,93,29.59,3.1,North,2.3,-,N/A,Fog,Fog,360,2012-10-28 22:20:00
10:50 PM,42.8,42.8,100,29.59,3.1,Calm,Calm,-,N/A,Fog,Fog,0,2012-10-28 22:50:00